Change the Weather History Date:

Friday, November 9, 2012

  Actual Average Record
Temperature  
Mean Temperature 30 °F -  
Max Temperature 33 °F 31 °F 51 °F (1996)
Min Temperature 26 °F 18 °F -11 °F (1955)
Degree Days  
Heating Degree Days 36    
Moisture  
Dew Point 26 °F    
Average Humidity 87    
Maximum Humidity 93    
Minimum Humidity 64    
Precipitation  
Precipitation 0.02 in - - ()
Sea Level Pressure  
Sea Level Pressure 29.95 in    
Wind  
Wind Speed 17 mph (NNE)    
Max Wind Speed 23 mph    
Max Gust Speed 29 mph    
Visibility 6 miles    
Events Rain , Snow    
Averages and records for this station are not official NWS values.
T = Trace of Precipitation, MM = Missing Value Source: NWS Daily Summary

Daily Weather History Graph

Daily Weather History Graph

Search for Another Location

Airport or City:

Trip Planner

Search our weather history database for the weather conditions in past years. The results will help you decide how hot, cold, wet, or windy it might be!

Date:

Astronomy

Nov. 09, 2012 Rise Set
Actual Time 8:52 AM AKST 4:43 PM AKST
Civil Twilight 8:04 AM AKST 5:32 PM AKST
Nautical Twilight 7:12 AM AKST 6:24 PM AKST
Astronomical Twilight 6:22 AM AKST 7:13 PM AKST
Moon 2:52 AM AKST (11/9) 3:04 PM AKST (11/9)
Length of Visible Light 9h 28m
Length of Day
7h 51m
Waning Crescent, 22% of the Moon is Illuminated
Nov 9
Waning Crescent
Nov 13
New
Nov 20
First Quarter
Nov 28
Full
Dec 6
Last Quarter

Hourly Weather History & Observations

Time (AKST) Temp. Windchill Dew Point Humidity Pressure Visibility Wind Dir Wind Speed Gust Speed Precip Events Conditions
12:45 AM 28.4 °F 17.0 °F 17.6 °F 64% 30.15 in 9.0 mi NNE 15.0 mph - N/A   Overcast
12:53 AM 28.9 °F 16.9 °F 18.0 °F 64% 30.16 in 5.0 mi NNE 17.3 mph - 0.00 in Snow Light Snow
1:03 AM 28.4 °F 16.2 °F 19.4 °F 69% 30.15 in 1.8 mi NNE 17.3 mph 25.3 mph 0.00 in Snow Light Snow
1:36 AM 26.6 °F 14.7 °F 21.2 °F 80% 30.14 in 2.0 mi NNE 15.0 mph - 0.00 in Snow Light Snow
1:53 AM 27.0 °F 15.2 °F 23.0 °F 85% 30.14 in 2.5 mi NNE 15.0 mph - 0.00 in Snow Light Snow
2:34 AM 26.6 °F 14.3 °F 23.0 °F 86% 30.11 in 1.2 mi NNE 16.1 mph - 0.00 in Snow Light Snow
3:33 AM 26.6 °F 13.8 °F 24.8 °F 93% 30.09 in 1.0 mi NNE 17.3 mph - 0.00 in Snow Light Snow
3:42 AM 26.6 °F 13.8 °F 24.8 °F 93% 30.09 in 0.8 mi NNE 17.3 mph - 0.01 in Snow Light Snow
3:53 AM 27.0 °F 14.3 °F 24.1 °F 89% 30.09 in 0.8 mi NNE 17.3 mph 24.2 mph 0.01 in Snow Light Snow
4:11 AM 26.6 °F 14.3 °F 24.8 °F 93% 30.07 in 1.0 mi NNE 16.1 mph - 0.00 in Snow Light Snow
4:23 AM 26.6 °F 14.3 °F 24.8 °F 93% 30.07 in 1.5 mi NNE 16.1 mph - 0.00 in Snow Light Snow
4:53 AM 27.0 °F 14.3 °F 25.0 °F 92% 30.07 in 1.8 mi NNE 17.3 mph - 0.00 in Snow Light Snow
5:18 AM 26.6 °F 12.7 °F 24.8 °F 93% 30.04 in 2.0 mi NNE 20.7 mph - 0.00 in Snow Light Snow
5:27 AM 26.6 °F 13.1 °F 24.8 °F 93% 30.04 in 2.5 mi NNE 19.6 mph 26.5 mph 0.00 in Snow Light Snow
5:53 AM 27.0 °F 13.2 °F 24.1 °F 89% 30.04 in 2.0 mi NNE 20.7 mph - 0.00 in Snow Light Snow
6:06 AM 26.6 °F 13.1 °F 24.8 °F 93% 30.02 in 4.0 mi NNE 19.6 mph - 0.00 in Snow Light Snow
6:53 AM 27.0 °F 14.3 °F 25.0 °F 92% 30.01 in 3.0 mi NNE 17.3 mph 26.5 mph 0.00 in Snow Light Snow
7:26 AM 26.6 °F 12.7 °F 24.8 °F 93% 29.98 in 1.8 mi NNE 20.7 mph - 0.00 in Snow Light Snow
7:39 AM 28.4 °F 15.8 °F 24.8 °F 86% 29.98 in 3.0 mi NNE 18.4 mph - 0.00 in Snow Light Snow
7:53 AM 28.0 °F 14.9 °F 25.0 °F 88% 29.99 in 7.0 mi NNE 19.6 mph - 0.00 in Snow Light Snow
8:53 AM 28.0 °F 15.3 °F 26.1 °F 92% 29.97 in 10.0 mi NNE 18.4 mph - 0.00 in   Overcast
9:53 AM 28.9 °F 15.4 °F 26.1 °F 89% 29.96 in 4.0 mi NNE 21.9 mph 28.8 mph 0.00 in Snow Light Snow
10:53 AM 30.0 °F 18.3 °F 27.0 °F 88% 29.94 in 10.0 mi NNE 17.3 mph - 0.00 in Snow Light Snow
11:53 AM 30.0 °F 18.3 °F 28.0 °F 92% 29.93 in 10.0 mi NNE 17.3 mph - 0.00 in   Overcast
12:53 PM 30.9 °F 18.4 °F 28.0 °F 89% 29.91 in 10.0 mi NNE 20.7 mph - N/A   Overcast
1:53 PM 30.9 °F 19.8 °F 28.0 °F 89% 29.88 in 10.0 mi North 16.1 mph - N/A   Overcast
2:53 PM 32.0 °F 20.1 °F 28.9 °F 88% 29.85 in 10.0 mi North 19.6 mph - N/A   Overcast
3:53 PM 32.0 °F 20.1 °F 28.9 °F 88% 29.82 in 10.0 mi NNE 19.6 mph - N/A   Overcast
4:53 PM 32.0 °F 19.2 °F 28.0 °F 85% 29.80 in 10.0 mi NNE 23.0 mph - N/A   Overcast
5:53 PM 32.0 °F 20.1 °F 28.9 °F 88% 29.79 in 10.0 mi North 19.6 mph - N/A   Overcast
6:53 PM 32.0 °F 20.5 °F 28.9 °F 88% 29.78 in 10.0 mi North 18.4 mph - N/A   Overcast
7:53 PM 32.0 °F 20.1 °F 28.9 °F 88% 29.76 in 10.0 mi North 19.6 mph - N/A   Overcast
8:53 PM 32.0 °F 20.5 °F 28.9 °F 88% 29.74 in 9.0 mi North 18.4 mph - 0.00 in Snow Light Snow
9:53 PM 32.0 °F 20.1 °F 30.0 °F 92% 29.73 in 10.0 mi North 19.6 mph - 0.01 in   Overcast
10:51 PM 33.8 °F 22.8 °F 30.2 °F 87% 29.72 in 10.0 mi NNE 18.4 mph - 0.00 in Rain Light Freezing Rain
10:53 PM 33.1 °F 22.6 °F 30.0 °F 89% 29.73 in 10.0 mi NNE 16.1 mph - 0.00 in Rain Light Freezing Rain
11:14 PM 33.8 °F 23.9 °F 30.2 °F 87% 29.71 in 9.0 mi NNE 15.0 mph - 0.00 in Snow Light Snow
11:53 PM 33.1 °F 22.2 °F 30.0 °F 89% 29.72 in 10.0 mi NNE 17.3 mph - 0.00 in   Overcast